Hourly Data Report for October 26, 2013

All times are specified in Local Standard Time (LST). Add 1 hour to adjust for Daylight Saving Time where and when it is observed.

GJOA HAVEN A
NUNAVUT

68°38'08.000" N
95°51'01.000" W
46.90 m
2302337
71597
YHK

Download Data

Hourly Data (October 2013)
Hourly Data Report for October 26, 2013
Temp Definition
°C
Dew Point Temp Definition
°C
Rel Hum Definition
%
Wind Dir Definition
10's deg

Wind Spd Definition
km/h
Visibility Definition
km
Stn Press Definition
kPa
Hmdx Definition


Wind Chill Definition


Weather Definition


TIME
00:00 Legend Double Dagger -9.8 -10.8 93 30 21 16.1 100.19   -18 LegendNANA
01:00 Legend Double Dagger -9.2 -10.1 93 31 26 16.1 100.22   -18 LegendNANA
02:00 Legend Double Dagger -8.9 -10.0 92 33 26 16.1 100.22   -18 LegendNANA
03:00 Legend Double Dagger -9.1 -10.3 91 33 30 11.3 100.24   -18 LegendNANA
04:00 Legend Double Dagger -9.9 -11.1 91 33 33 9.7 100.25   -20 LegendNANA
05:00 Legend Double Dagger -10.4 -11.6 91 33 32 8.1 100.28   -20 LegendNANA
06:00 Legend Double Dagger -10.8 -12.0 91 33 32 4.0 100.30   -21 LegendNANA
07:00 Legend Double Dagger -11.4 -12.6 91 33 33 3.6 100.31   -22 LegendNANA
08:00 Legend Double Dagger -12.0 -13.1 92 34 33 4.8 100.35   -23 LegendNANA
09:00 Legend Double Dagger -11.1 -12.2 92 34 35 4.8 100.37   -22 LegendNANA
10:00 Legend Double Dagger -9.9 -11.0 92 35 39 3.2 100.43   -21 LegendNANA
11:00 Legend Double Dagger -9.9 -11.0 92 35 46 2.0 100.47   -21 LegendNANA
12:00 Legend Double Dagger -9.9 -11.0 92 35 45 2.4 100.54   -21 LegendNANA
13:00 Legend Double Dagger -10.8 -11.9 92 35 46 2.0 100.61   -22 LegendNANA
14:00 Legend Double Dagger -10.9 -12.1 91 35 46 1.6 100.71   -23 LegendNANA
15:00 Legend Double Dagger -11.7 -12.9 91 35 42 4.0 100.82   -23 LegendNANA
16:00 Legend Double Dagger -13.9 -15.2 90 34 39 2.8 100.91   -26 LegendNANA
17:00 Legend Double Dagger -15.4 -16.8 90 33 41 2.8 100.94   -28 LegendNANA
18:00 Legend Double Dagger -15.8 -17.4 88 34 35 11.3 101.00   -28 LegendNANA
19:00 Legend Double Dagger -15.7 -17.3 88 34 35 6.4 101.05   -28 LegendNANA
20:00 Legend Double Dagger -16.3 -17.9 88 32 45 2.8 101.03   -30 LegendNANA
21:00 Legend Double Dagger -14.8 -16.2 89 32 41 3.2 101.03   -27 LegendNANA
22:00 Legend Double Dagger -13.9 -15.3 89 33 32 16.1 101.07   -25 LegendNANA
23:00 Legend Double Dagger -13.5 -14.8 90 32 30 8.1 101.07   -24 LegendNANA

Notes on Data Quality.

Legend

  • E = Estimated
  • M = Missing
  • NA = Not Available
  • ‡ = Partner data that is not subject to review by the National Climate Archives
Date modified: